Location: Azul
(36.7830°S, 59.8500°W)
Time: 12:31:09
(UTC-03:00)

ISS - Pass Details

Date: 19 February 2018
Orbit: 403 x 406 km, 51.6° (Epoch: 26 February)

Event Time Altitude Azimuth Distance (km) Brightness Sun altitude
Exits shadow 04:49:45 36° 211° (SSW) 681 -2.8 -20.1°
Maximum altitude 04:50:56 66° 141° (SE) 456 -3.5 -19.9°
Drops below altitude 10° 04:54:14 10° 57° (ENE) 1,477 -0.7 -19.3°
Sets 04:56:19 0° 54° (NE) 2,331 0.3 -19.0°
